Regional Weather Roundup
Issued by NWS

Home | Current Version | Previous Version | Graphics & Text | Print | Product List | Glossary On
Versions: 1 2 3 4 5 6 7 8 9 10 11 12 13 14 15 16 17 18 19 20 21 22 23 24 25 26 27 28 29 30 31 32 33 34 35 36 37 38 39 40 41 42 43 44 45 46 47 48 49 50
000
ASUS43 KDTX 172001
RWRMI
MICHIGAN HOURLY REGIONAL WEATHER ROUNDUP
NATIONAL WEATHER SERVICE DETROIT/PONTIAC MI
400 PM EDT WED SEP 17 2014

NOTE: "FAIR" INDICATES FEW OR NO CLOUDS BELOW 12,000 FEET WITH NO
SIGNIFICANT WEATHER AND/OR OBSTRUCTION TO VISIBILITY.

MIZ047>049-052>055-059>063-066>070-074>076-081>083-172100-
SOUTHEAST LOWER MICHIGAN

CITY           SKY/WX    TMP DP  RH WIND       PRES   REMARKS
ADRIAN         MOSUNNY   67  41  38 MISG      30.00F
ALMA           CLOUDY    66  46  48 W10       29.98S
ANN ARBOR      SUNNY     67  42  40 CALM      29.99F
BAD AXE        MOSUNNY   65  46  51 W8        29.97S
CARO           PTSUNNY   66  47  50 W10       29.97S
DETROIT CITY   SUNNY     68  41  37 NW8       29.98F
DETROIT        MOSUNNY   67  43  41 VRB7      29.99F
FLINT          MOSUNNY   65  44  46 SW7       29.99S
GROSSE ILE     PTSUNNY   66  46  48 W8        29.98F
HILLSDALE      PTSUNNY   67  42  40 W8        30.00F
HOWELL         MOSUNNY   66  41  40 W7        29.99S

CITY           SKY/WX    TMP DP  RH WIND       PRES   REMARKS
JACKSON        MOSUNNY   66  41  40 SW13      29.99F
LAMBERTVILLE   MOSUNNY   68  43  40 NW5       30.00S
LANSING        PTSUNNY   65  44  46 W7        29.99F
LAPEER         FAIR      64  42  45 W7        29.99S
MASON          MOSUNNY   64  43  46 NW3G9     29.99F
MONROE         SUNNY     68  43  40 W7G17     29.98F
MT. CLEMENS    MOSUNNY   65  46  50 SE8       29.96F
PONTIAC        MOSUNNY   65  42  43 W7        29.99S
PORT HOPE        N/A     67  44  43 VRB6      29.95S
PORT HURON     MOSUNNY   66  46  48 S5        29.98S
TRI CITIES     PTSUNNY   69  44  40 W13       29.98S
TROY           SUNNY     67  39  35 W6        30.00S
SAGINAW HB     PTSUNNY   70  43  37 W9        29.97S
$$
MIZ043>046-050>051-056>058-064>065-071>073-077>080-172100-
SOUTHWEST LOWER MICHIGAN

CITY           SKY/WX    TMP DP  RH WIND       PRES   REMARKS
BATTLE CREEK   PTSUNNY   66  44  45 NW6       30.00F
BENTON HARBOR  SUNNY     64  45  49 W10       30.01F
BIG RAPIDS     MOSUNNY   64  48  56 W6G18     29.97S
COLDWATER      MOSUNNY   66  45  46 W7        30.00S
FREMONT        FAIR      65  39  38 W10       29.99S
HOLLAND        PTSUNNY   65  47  52 W6        30.02S
GRAND RAPIDS   PTSUNNY   67  50  54 W14       30.00S
IONIA          FAIR      66  47  51 W13       29.99S
KALAMAZOO      MOSUNNY   67  43  41 W8        30.00F
LUDINGTON      SUNNY     62  49  62 SW10      29.99S
MARSHALL       MOSUNNY   66  44  45 W12G18    29.99F
MOUNT PLEASANT PTSUNNY   68  45  43 W7        29.97S
MUSKEGON       MOSUNNY   65  47  52 W10       30.01S
SOUTH HAVEN    SUNNY     65  47  51 W8        30.01S
$$
MIZ016>042-172100-
NORTHERN LOWER MICHIGAN

CITY           SKY/WX    TMP DP  RH WIND       PRES   REMARKS
ALPENA         PTSUNNY   67  46  47 W8        29.92S
BEAVER ISLAND  MOSUNNY   63  53  68 SW16      29.94R
BELLAIRE       SUNNY     67  42  41 W5        29.94F
CADILLAC       PTSUNNY   65  45  48 SW7       29.96F
CHARLEVOIX     SUNNY     66  47  51 SW14      29.97S
FRANKFORT      SUNNY     64  49  58 SW7       29.97S
GAYLORD        SUNNY     64  42  44 W14       29.94F
GRAYLING       MOSUNNY   69  46  43 W10       29.96S
HARBOR SPRINGS MOSUNNY   66  46  49 W6        29.94R
HOUGHTON LAKE  MOSUNNY   65  46  50 SW8       29.96S
MANISTEE       SUNNY     64  43  45 W9        29.98S
OSCODA         PTSUNNY   70  45  40 W15       29.92F
PELLSTON       MOSUNNY   66  42  41 SW10G18   29.93S
TRAVERSE CITY  MOSUNNY   67  42  40 W10G20    29.94S
$$
MIZ007>008-015-172100-
EASTERN UPPER MICHIGAN

CITY           SKY/WX    TMP DP  RH WIND       PRES   REMARKS
KINROSS        CLOUDY    57  52  82 NW17      29.91S
MACKINAC ISLAN MOSUNNY   61  51  70 W12G20    29.91R
NEWBERRY       CLOUDY    52  47  81 N10G21    29.96R
S. S. MARIE    LGT RAIN  54  48  80 NW13      29.93R
$$
MIZ004>006-011>014-085-172100-
CENTRAL UPPER MICHIGAN

CITY           SKY/WX    TMP DP  RH WIND       PRES   REMARKS
MANISTIQUE     CLOUDY    60  51  70 NE8       29.94R
ESCANABA       PTSUNNY   64  48  55 S13       29.91S
MENOMINEE      MOSUNNY   70  46  43 W6        29.91S
SAWYER-GWINN   CLOUDY    45  43  93 N16       29.99R FOG
$$
MIZ001>003-009>011-084-172100-
WESTERN UPPER MICHIGAN

CITY           SKY/WX    TMP DP  RH WIND       PRES   REMARKS
IRON MOUNTAIN  PTSUNNY   69  43  38 NW8       29.91S
HOUGHTON       CLOUDY    45  39  79 E7        30.02R
COPPER HARBOR    N/A     44  37  76 E12       30.05R
IRONWOOD       CLOUDY    50  46  87 N10       29.98R
$$

ABBREVIATIONS USED IN REMARKS
   TC - TEMPERATURE IN CELSIUS
  WCI - WIND CHILL INDEX
   HX - HEAT INDEX
  VSB - VISIBILITY



USA.gov is the U.S. government's official web portal to all federal, state and local government web resources and services.